• In Deutschland
  • Länderverzeichnis
  • Für 7 Tage
  • Wassertemperatur
  • Satellitenkarten
  • Wetterkarte
  • Widgets
  • user-avatar
    Anmelden

    Stündliche Wetter Kempten

    Heute, 18 Oktober, Mittwoch

    Zeit Temperatur Niederschläge Wind Luftdruck Luftfeuchtigkeit
    00:00 +11°C° 0 mm 1 m/S 697 mmHg 71%
    01:00 +11°C° 0 mm 1 m/S 697 mmHg 70%
    02:00 +11°C° 0 mm 1 m/S 697 mmHg 68%
    03:00 +10°C° 0 mm 1 m/S 697 mmHg 67%
    04:00 +9°C° 0 mm 2 m/S 696 mmHg 66%
    05:00 +10°C° 0 mm 1 m/S 696 mmHg 65%
    06:00 +10°C° 0 mm 1 m/S 696 mmHg 63%
    07:00 +9°C° 0 mm 1 m/S 696 mmHg 62%
    08:00 +12°C° 0 mm 1 m/S 696 mmHg 58%
    09:00 +15°C° 0 mm 1 m/S 696 mmHg 54%
    10:00 +16°C° 0 mm 0 m/S 696 mmHg 50%
    11:00 +19°C° 0 mm 1 m/S 696 mmHg 49%
    12:00 +20°C° 0 mm 1 m/S 696 mmHg 47%
    13:00 +21°C° 0 mm 1 m/S 696 mmHg 46%
    14:00 +20°C° 0 mm 1 m/S 696 mmHg 52%
    15:00 +19°C° 0 mm 1 m/S 695 mmHg 58%
    16:00 +18°C° 0 mm 1 m/S 695 mmHg 64%
    17:00 +15°C° 0 mm 1 m/S 695 mmHg 70%
    18:00 +13°C° 0 mm 1 m/S 695 mmHg 76%
    19:00 +11°C° 0 mm 1 m/S 694 mmHg 83%
    20:00 +11°C° 0 mm 1 m/S 694 mmHg 81%
    21:00 +10°C° 0 mm 1 m/S 695 mmHg 80%
    22:00 +10°C° 0 mm 1 m/S 695 mmHg 78%
    23:00 +10°C° 0 mm 1 m/S 695 mmHg 77%

    Morgen, 19 Oktober, Donnerstag

    Zeit Temperatur Niederschläge Wind Luftdruck Luftfeuchtigkeit
    00:00 +10°C° 0 mm 1 m/S 694 mmHg 75%
    01:00 +9°C° 0 mm 1 m/S 694 mmHg 73%
    02:00 +9°C° 0 mm 1 m/S 694 mmHg 72%
    03:00 +9°C° 0 mm 1 m/S 694 mmHg 70%
    04:00 +9°C° 0 mm 1 m/S 694 mmHg 69%
    05:00 +8°C° 0 mm 1 m/S 694 mmHg 67%
    06:00 +8°C° 0 mm 1 m/S 694 mmHg 66%
    07:00 +8°C° 0 mm 1 m/S 693 mmHg 64%
    08:00 +11°C° 0 mm 1 m/S 694 mmHg 59%
    09:00 +13°C° 0 mm 1 m/S 694 mmHg 54%
    10:00 +16°C° 0 mm 1 m/S 694 mmHg 49%
    11:00 +18°C° 0 mm 1 m/S 694 mmHg 49%
    12:00 +19°C° 0 mm 1 m/S 694 mmHg 48%
    13:00 +19°C° 0 mm 2 m/S 694 mmHg 47%
    14:00 +18°C° 0 mm 2 m/S 694 mmHg 53%
    15:00 +18°C° 0 mm 2 m/S 693 mmHg 60%
    16:00 +17°C° 0 mm 2 m/S 693 mmHg 67%
    17:00 +15°C° 0 mm 2 m/S 693 mmHg 71%
    18:00 +13°C° 0 mm 2 m/S 693 mmHg 76%
    19:00 +10°C° 0 mm 2 m/S 693 mmHg 81%
    20:00 +11°C° 0 mm 1 m/S 693 mmHg 80%
    21:00 +10°C° 0 mm 1 m/S 693 mmHg 80%
    22:00 +10°C° 0 mm 1 m/S 693 mmHg 80%
    23:00 +10°C° 0 mm 1 m/S 693 mmHg 80%

    übermorgen, 20 Oktober, Freitag

    Zeit Temperatur Niederschläge Wind Luftdruck Luftfeuchtigkeit
    00:00 +10°C° 0 mm 1 m/S 693 mmHg 80%
    01:00 +9°C° 0 mm 1 m/S 693 mmHg 80%
    02:00 +9°C° 0 mm 1 m/S 693 mmHg 80%
    03:00 +9°C° 0 mm 1 m/S 693 mmHg 81%
    04:00 +8°C° 0 mm 2 m/S 693 mmHg 82%
    05:00 +8°C° 0 mm 2 m/S 694 mmHg 82%
    06:00 +8°C° 0 mm 2 m/S 694 mmHg 82%
    07:00 +8°C° 0 mm 2 m/S 694 mmHg 81%
    08:00 +10°C° 0 mm 2 m/S 695 mmHg 75%
    09:00 +14°C° 0 mm 2 m/S 695 mmHg 68%
    10:00 +16°C° 0 mm 1 m/S 695 mmHg 61%
    11:00 +18°C° 0 mm 1 m/S 695 mmHg 59%
    12:00 +18°C° 0 mm 2 m/S 696 mmHg 57%
    13:00 +19°C° 0 mm 2 m/S 696 mmHg 55%
    14:00 +19°C° 0 mm 1 m/S 696 mmHg 60%
    15:00 +18°C° 0 mm 1 m/S 695 mmHg 64%
    16:00 +18°C° 0 mm 1 m/S 695 mmHg 69%
    17:00 +15°C° 0 mm 1 m/S 696 mmHg 75%
    18:00 +13°C° 0 mm 1 m/S 696 mmHg 81%
    19:00 +11°C° 0 mm 1 m/S 696 mmHg 87%
    20:00 +11°C° 0 mm 1 m/S 696 mmHg 87%
    21:00 +11°C° 0 mm 1 m/S 696 mmHg 86%
    22:00 +10°C° 0 mm 2 m/S 696 mmHg 85%
    23:00 +9°C° 0 mm 2 m/S 696 mmHg 83%

    21 Oktober, Samstag

    Zeit Temperatur Niederschläge Wind Luftdruck Luftfeuchtigkeit
    00:00 +9°C° 0 mm 2 m/S 696 mmHg 82%
    01:00 +10°C° 0 mm 1 m/S 696 mmHg 80%
    02:00 +10°C° 0 mm 1 m/S 696 mmHg 78%
    03:00 +10°C° 0 mm 1 m/S 696 mmHg 77%
    04:00 +10°C° 0 mm 1 m/S 696 mmHg 75%
    05:00 +9°C° 0 mm 2 m/S 696 mmHg 74%
    06:00 +9°C° 0 mm 2 m/S 696 mmHg 72%
    07:00 +9°C° 0 mm 2 m/S 696 mmHg 71%
    08:00 +13°C° 0 mm 1 m/S 696 mmHg 66%
    09:00 +15°C° 0 mm 1 m/S 696 mmHg 62%
    10:00 +18°C° 0 mm 1 m/S 697 mmHg 57%
    11:00 +19°C° 0 mm 1 m/S 696 mmHg 54%
    12:00 +20°C° 0 mm 1 m/S 696 mmHg 52%
    13:00 +21°C° 0 mm 1 m/S 696 mmHg 49%
    14:00 +20°C° 0 mm 1 m/S 696 mmHg 55%
    15:00 +20°C° 0 mm 1 m/S 696 mmHg 60%
    16:00 +19°C° 0 mm 1 m/S 696 mmHg 66%
    17:00 +16°C° 0 mm 1 m/S 696 mmHg 71%
    18:00 +14°C° 0 mm 1 m/S 696 mmHg 77%
    19:00 +12°C° 0 mm 1 m/S 696 mmHg 82%
    20:00 +12°C° 0 mm 1 m/S 696 mmHg 84%
    21:00 +12°C° 0 mm 1 m/S 696 mmHg 85%
    22:00 +12°C° 0 mm 1 m/S 697 mmHg 87%
    23:00 +12°C° 0,1 mm 1 m/S 696 mmHg 89%

    22 Oktober, Sonntag

    Zeit Temperatur Niederschläge Wind Luftdruck Luftfeuchtigkeit
    00:00 +12°C° 0,1 mm 1 m/S 696 mmHg 92%
    01:00 +12°C° 0,1 mm 1 m/S 696 mmHg 94%
    02:00 +10°C° 0,8 mm 2 m/S 696 mmHg 95%
    03:00 +10°C° 0,8 mm 2 m/S 696 mmHg 95%
    04:00 +9°C° 0,8 mm 3 m/S 696 mmHg 96%
    05:00 +9°C° 1,3 mm 3 m/S 696 mmHg 96%
    06:00 +8°C° 1,3 mm 2 m/S 696 mmHg 96%
    07:00 +8°C° 1,3 mm 2 m/S 696 mmHg 97%
    08:00 +8°C° 1,2 mm 2 m/S 696 mmHg 96%
    09:00 +7°C° 1,2 mm 3 m/S 696 mmHg 96%
    10:00 +7°C° 1,2 mm 3 m/S 696 mmHg 96%
    11:00 +7°C° 1 mm 3 m/S 697 mmHg 95%
    12:00 +7°C° 1 mm 3 m/S 697 mmHg 94%
    13:00 +7°C° 1 mm 3 m/S 697 mmHg 93%
    14:00 +7°C° 0,3 mm 3 m/S 697 mmHg 92%
    15:00 +7°C° 0,3 mm 3 m/S 697 mmHg 91%
    16:00 +7°C° 0,3 mm 3 m/S 698 mmHg 90%
    17:00 +6°C° 0,1 mm 2 m/S 698 mmHg 92%
    18:00 +6°C° 0,1 mm 2 m/S 698 mmHg 93%
    19:00 +5°C° 0,1 mm 2 m/S 699 mmHg 95%
    20:00 +4°C° 0 mm 2 m/S 699 mmHg 95%
    21:00 +4°C° 0 mm 2 m/S 699 mmHg 96%
    22:00 +3°C° 0 mm 2 m/S 700 mmHg 96%
    23:00 +3°C° 0 mm 2 m/S 700 mmHg 96%

    23 Oktober, Montag

    Zeit Temperatur Niederschläge Wind Luftdruck Luftfeuchtigkeit
    00:00 +3°C° 0 mm 2 m/S 700 mmHg 96%
    01:00 +3°C° 0 mm 2 m/S 700 mmHg 96%
    02:00 +3°C° 0 mm 2 m/S 700 mmHg 95%
    03:00 +2°C° 0 mm 2 m/S 701 mmHg 95%
    04:00 +2°C° 0 mm 2 m/S 701 mmHg 95%
    05:00 +2°C° 0 mm 2 m/S 701 mmHg 95%
    06:00 +2°C° 0 mm 2 m/S 701 mmHg 94%
    07:00 +2°C° 0 mm 2 m/S 701 mmHg 94%
    08:00 +4°C° 0 mm 2 m/S 701 mmHg 88%
    09:00 +6°C° 0 mm 2 m/S 702 mmHg 82%
    10:00 +8°C° 0 mm 2 m/S 702 mmHg 76%
    11:00 +9°C° 0 mm 2 m/S 702 mmHg 70%
    12:00 +10°C° 0 mm 2 m/S 701 mmHg 63%
    13:00 +13°C° 0 mm 1 m/S 701 mmHg 57%
    14:00 +12°C° 0 mm 1 m/S 701 mmHg 61%
    15:00 +12°C° 0 mm 1 m/S 700 mmHg 64%
    16:00 +12°C° 0 mm 1 m/S 700 mmHg 68%
    17:00 +10°C° 0 mm 1 m/S 700 mmHg 72%
    18:00 +8°C° 0 mm 1 m/S 700 mmHg 76%
    19:00 +6°C° 0 mm 1 m/S 700 mmHg 79%
    20:00 +6°C° 0 mm 1 m/S 700 mmHg 77%
    21:00 +7°C° 0 mm 1 m/S 700 mmHg 74%
    22:00 +6°C° 0 mm 2 m/S 700 mmHg 72%
    23:00 +6°C° 0 mm 2 m/S 700 mmHg 70%
    Mehr zeigen